Location: Bathurst
(33.4193°S, 149.5775°E)
Time: 01:01:38
(UTC+10:00)

A-11 Canister half - Pass Details

Date: 16 June 2021
Orbit: 1513 x 1687 km, 47.2° (Epoch: 28 July)

Event Time Altitude Azimuth Distance (km) Brightness Sun altitude
Rises 17:28:12 0° 297° (WNW) 4,670 14.4 -6.0°
Reaches altitude 10° 17:31:14 10° 294° (WNW) 3,706 12.9 -6.6°
Maximum altitude 17:40:34 67° 212° (SSW) 1,684 9.3 -8.4°
Drops below altitude 10° 17:50:20 10° 129° (SE) 3,855 10.5 -10.2°
Enters shadow 17:50:23 10° 129° (SE) 3,868 10.5 -10.3°
